| time (UTC) | temp F | wind direction | speed MPH | gust MPH | rain 1hr in | rain 24hr in | rain mn in | humidity % | barometer mb |
| 20260505233404 | 61 | 62 | 2.0 | 5.0 | 0.00 | 0.00 | 0.00 | 65 | 1004.0 |
| 20260505232912 | 62 | 49 | 1.0 | 3.0 | 0.00 | 0.00 | 0.00 | 64 | 1004.1 |
| 20260505231905 | 62 | 150 | 2.0 | 23.0 | 0.00 | 0.00 | 0.00 | 64 | 1004.2 |
| 20260505231404 | 62 | 139 | 2.0 | 6.0 | 0.00 | 0.00 | 0.00 | 64 | 1004.3 |
| 20260505230905 | 62 | 121 | 2.0 | 5.0 | 0.00 | 0.00 | 0.00 | 63 | 1004.3 |
| 20260505230404 | 62 | 95 | 1.0 | 3.0 | 0.00 | 0.00 | 0.00 | 63 | 1004.3 |
| 20260505225904 | 62 | 83 | 1.0 | 3.0 | 0.00 | 0.00 | 0.00 | 63 | 1004.3 |
| 20260505225404 | 62 | 117 | 2.0 | 13.0 | 0.00 | 0.00 | 0.00 | 63 | 1004.3 |
| 20260505224905 | 62 | 121 | 2.0 | 6.0 | 0.00 | 0.00 | 0.00 | 63 | 1004.3 |
| 20260505224404 | 62 | 78 | 3.0 | 12.0 | 0.00 | 0.00 | 0.00 | 63 | 1004.1 |
| 20260505223904 | 63 | 64 | 2.0 | 6.0 | 0.00 | 0.00 | 0.00 | 62 | 1004.2 |
| 20260505222904 | 63 | 131 | 3.0 | 7.0 | 0.00 | 0.00 | 0.00 | 62 | 1004.4 |
| 20260505221904 | 63 | 139 | 3.0 | 12.0 | 0.00 | 0.00 | 0.00 | 61 | 1004.4 |
| 20260505221404 | 63 | 37 | 3.0 | 8.0 | 0.00 | 0.00 | 0.00 | 61 | 1004.4 |
| 20260505220904 | 63 | 82 | 1.0 | 6.0 | 0.00 | 0.00 | 0.00 | 61 | 1004.5 |
| 20260505215905 | 63 | 146 | 3.0 | 9.0 | 0.00 | 0.00 | 0.00 | 61 | 1004.5 |
| 20260505215404 | 63 | 112 | 3.0 | 10.0 | 0.00 | 0.00 | 0.00 | 60 | 1004.5 |
| 20260505214904 | 64 | 66 | 2.0 | 10.0 | 0.00 | 0.00 | 0.00 | 60 | 1004.5 |
| 20260505214404 | 64 | 41 | 3.0 | 8.0 | 0.00 | 0.00 | 0.00 | 59 | 1004.5 |
| 20260505213905 | 64 | 45 | 0.0 | 3.0 | 0.00 | 0.00 | 0.00 | 59 | 1004.5 |
| 20260505213405 | 64 | 63 | 3.0 | 8.0 | 0.00 | 0.00 | 0.00 | 59 | 1004.5 |
| 20260505212904 | 64 | 128 | 2.0 | 6.0 | 0.00 | 0.00 | 0.00 | 59 | 1004.5 |
| 20260505212404 | 64 | 118 | 1.0 | 7.0 | 0.00 | 0.00 | 0.00 | 58 | 1004.5 |
| 20260505211904 | 64 | 142 | 2.0 | 7.0 | 0.00 | 0.00 | 0.00 | 58 | 1004.6 |
| 20260505211404 | 64 | 132 | 3.0 | 12.0 | 0.00 | 0.00 | 0.00 | 58 | 1004.6 |
| 20260505210904 | 64 | 127 | 4.0 | 9.0 | 0.00 | 0.00 | 0.00 | 57 | 1004.6 |
| 20260505205905 | 65 | 143 | 3.0 | 7.0 | 0.00 | 0.00 | 0.00 | 56 | 1004.7 |
| 20260505205404 | 65 | 114 | 2.0 | 8.0 | 0.00 | 0.00 | 0.00 | 56 | 1004.7 |
| 20260505204904 | 65 | 95 | 1.0 | 6.0 | 0.00 | 0.00 | 0.00 | 55 | 1004.7 |
| 20260505204404 | 65 | 107 | 3.0 | 8.0 | 0.00 | 0.00 | 0.00 | 54 | 1004.9 |
| 20260505203904 | 65 | 48 | 2.0 | 6.0 | 0.00 | 0.00 | 0.00 | 54 | 1004.9 |
| 20260505203404 | 65 | 76 | 2.0 | 6.0 | 0.00 | 0.00 | 0.00 | 53 | 1005.0 |
| 20260505202904 | 66 | 144 | 1.0 | 5.0 | 0.00 | 0.00 | 0.00 | 53 | 1004.9 |
| 20260505202404 | 66 | 80 | 1.0 | 3.0 | 0.00 | 0.00 | 0.00 | 52 | 1004.8 |
| 20260505201404 | 66 | 117 | 2.0 | 6.0 | 0.00 | 0.00 | 0.00 | 52 | 1004.9 |
| 20260505200904 | 66 | 145 | 3.0 | 7.0 | 0.00 | 0.00 | 0.00 | 51 | 1004.8 |
| 20260505200404 | 66 | 157 | 4.0 | 14.0 | 0.00 | 0.00 | 0.00 | 51 | 1004.8 |
| 20260505195904 | 66 | 177 | 5.0 | 7.0 | 0.00 | 0.00 | 0.00 | 50 | 1004.7 |
| 20260505195404 | 67 | 160 | 2.0 | 6.0 | 0.00 | 0.00 | 0.00 | 50 | 1004.8 |
| 20260505194904 | 67 | 120 | 2.0 | 12.0 | 0.00 | 0.00 | 0.00 | 49 | 1004.6 |
| 20260505194404 | 67 | 165 | 4.0 | 12.0 | 0.00 | 0.00 | 0.00 | 49 | 1004.7 |
| 20260505193404 | 67 | 148 | 3.0 | 6.0 | 0.00 | 0.00 | 0.00 | 48 | 1004.7 |
| 20260505192904 | 68 | 151 | 4.0 | 12.0 | 0.00 | 0.00 | 0.00 | 48 | 1004.7 |
| 20260505192404 | 68 | 125 | 2.0 | 7.0 | 0.00 | 0.00 | 0.00 | 48 | 1004.6 |
| 20260505191904 | 68 | 62 | 4.0 | 8.0 | 0.00 | 0.00 | 0.00 | 48 | 1004.8 |
| 20260505191404 | 68 | 154 | 2.0 | 12.0 | 0.00 | 0.00 | 0.00 | 47 | 1004.8 |
| 20260505190904 | 68 | 145 | 5.0 | 9.0 | 0.00 | 0.00 | 0.00 | 47 | 1004.8 |
| 20260505190405 | 69 | 94 | 0.0 | 7.0 | 0.00 | 0.00 | 0.00 | 47 | 1004.7 |
| 20260505185404 | 69 | 170 | 5.0 | 17.0 | 0.00 | 0.00 | 0.00 | 47 | 1004.8 |
| 20260505184404 | 70 | 158 | 2.0 | 8.0 | 0.00 | 0.00 | 0.00 | 47 | 1004.7 |
| 20260505183908 | 70 | 66 | 2.0 | 6.0 | 0.00 | 0.00 | 0.00 | 48 | 1004.6 |
| 20260505183404 | 70 | 111 | 0.0 | 3.0 | 0.00 | 0.00 | 0.00 | 47 | 1004.7 |
| 20260505182904 | 70 | 76 | 0.0 | 3.0 | 0.00 | 0.00 | 0.00 | 47 | 1004.6 |
| 20260505182404 | 71 | 151 | 0.0 | 3.0 | 0.00 | 0.00 | 0.00 | 46 | 1004.6 |
| 20260505181904 | 71 | 107 | 1.0 | 7.0 | 0.00 | 0.00 | 0.00 | 46 | 1004.5 |
| 20260505181404 | 71 | 164 | 5.0 | 12.0 | 0.00 | 0.00 | 0.00 | 46 | 1004.4 |
| 20260505180904 | 71 | 176 | 5.0 | 12.0 | 0.00 | 0.00 | 0.00 | 45 | 1004.4 |
| 20260505180404 | 72 | 24 | 2.0 | 12.0 | 0.00 | 0.00 | 0.00 | 45 | 1004.3 |
| 20260505175904 | 72 | 165 | 2.0 | 9.0 | 0.00 | 0.00 | 0.00 | 45 | 1004.4 |
| 20260505175404 | 72 | 146 | 2.0 | 9.0 | 0.00 | 0.00 | 0.00 | 44 | 1004.3 |
| 20260505174905 | 72 | 167 | 6.0 | 15.0 | 0.00 | 0.00 | 0.00 | 44 | 1004.3 |
| 20260505174404 | 73 | 143 | 3.0 | 8.0 | 0.00 | 0.00 | 0.00 | 44 | 1004.2 |
| 20260505173904 | 73 | 175 | 5.0 | 13.0 | 0.00 | 0.00 | 0.00 | 43 | 1004.2 |
| 20260505173404 | 73 | 167 | 4.0 | 10.0 | 0.00 | 0.00 | 0.00 | 42 | 1004.2 |
| 20260505172904 | 74 | 189 | 6.0 | 12.0 | 0.00 | 0.00 | 0.00 | 42 | 1004.2 |
| 20260505171404 | 75 | 173 | 2.0 | 7.0 | 0.00 | 0.00 | 0.00 | 43 | 1004.1 |
| 20260505170904 | 75 | 171 | 5.0 | 14.0 | 0.00 | 0.00 | 0.00 | 42 | 1004.1 |
| 20260505170404 | 75 | 194 | 6.0 | 16.0 | 0.00 | 0.00 | 0.00 | 42 | 1004.1 |
| 20260505165904 | 75 | 165 | 5.0 | 12.0 | 0.00 | 0.00 | 0.00 | 41 | 1004.2 |
| 20260505165404 | 76 | 183 | 8.0 | 14.0 | 0.00 | 0.00 | 0.00 | 41 | 1004.2 |
| 20260505164904 | 76 | 182 | 3.0 | 13.0 | 0.00 | 0.00 | 0.00 | 40 | 1004.0 |
| 20260505164404 | 76 | 178 | 3.0 | 12.0 | 0.00 | 0.00 | 0.00 | 40 | 1003.9 |
| 20260505163904 | 76 | 152 | 5.0 | 9.0 | 0.00 | 0.00 | 0.00 | 39 | 1003.9 |
| 20260505163404 | 76 | 191 | 5.0 | 15.0 | 0.00 | 0.00 | 0.00 | 39 | 1003.9 |
| 20260505162905 | 77 | 175 | 5.0 | 9.0 | 0.00 | 0.00 | 0.00 | 39 | 1004.0 |
| 20260505162404 | 77 | 213 | 7.0 | 14.0 | 0.00 | 0.00 | 0.00 | 38 | 1004.0 |
| 20260505161904 | 77 | 176 | 7.0 | 22.0 | 0.00 | 0.00 | 0.00 | 38 | 1004.1 |
| 20260505161405 | 77 | 160 | 4.0 | 12.0 | 0.00 | 0.00 | 0.00 | 38 | 1004.1 |
| 20260505160405 | 78 | 153 | 3.0 | 9.0 | 0.00 | 0.00 | 0.00 | 38 | 1004.1 |
| 20260505152904 | 80 | 183 | 6.0 | 18.0 | 0.00 | 0.00 | 0.00 | 36 | 1004.4 |
| 20260505152404 | 80 | 193 | 6.0 | 15.0 | 0.00 | 0.00 | 0.00 | 36 | 1004.4 |
| 20260505151904 | 80 | 46 | 4.0 | 12.0 | 0.00 | 0.00 | 0.00 | 36 | 1004.3 |
| 20260505151404 | 79 | 169 | 3.0 | 9.0 | 0.00 | 0.00 | 0.00 | 37 | 1004.5 |
| 20260505150904 | 79 | 137 | 3.0 | 9.0 | 0.00 | 0.00 | 0.00 | 37 | 1004.6 |
| 20260505150405 | 79 | 181 | 6.0 | 14.0 | 0.00 | 0.00 | 0.00 | 37 | 1004.6 |
| 20260505140405 | 81 | 196 | 10.0 | 23.0 | 0.00 | 0.00 | 0.00 | 25 | 1005.1 |
| 20260505124404 | 76 | 161 | 3.0 | 9.0 | 0.00 | 0.00 | 0.00 | 31 | 1005.8 |
| 20260505123904 | 76 | 158 | 5.0 | 12.0 | 0.00 | 0.00 | 0.00 | 32 | 1005.9 |
| 20260505123404 | 76 | 159 | 5.0 | 9.0 | 0.00 | 0.00 | 0.00 | 32 | 1006.0 |
| 20260505122904 | 76 | 158 | 5.0 | 12.0 | 0.00 | 0.00 | 0.00 | 33 | 1005.9 |
| 20260505121404 | 76 | 179 | 3.0 | 15.0 | 0.00 | 0.00 | 0.00 | 32 | 1006.1 |
| 20260505120904 | 76 | 155 | 6.0 | 15.0 | 0.00 | 0.00 | 0.00 | 31 | 1006.1 |
| 20260505120404 | 76 | 108 | 6.0 | 14.0 | 0.00 | 0.00 | 0.00 | 30 | 1006.1 |
| 20260505115404 | 77 | 194 | 6.0 | 10.0 | 0.00 | 0.00 | 0.00 | 30 | 1006.2 |
| 20260505114404 | 77 | 132 | 3.0 | 12.0 | 0.00 | 0.00 | 0.00 | 30 | 1006.1 |
| 20260505113905 | 77 | 135 | 2.0 | 5.0 | 0.00 | 0.00 | 0.00 | 31 | 1006.2 |
| 20260505113404 | 77 | 104 | 3.0 | 13.0 | 0.00 | 0.00 | 0.00 | 31 | 1006.3 |
| 20260505112904 | 77 | 205 | 5.0 | 15.0 | 0.00 | 0.00 | 0.00 | 30 | 1006.3 |
| 20260505112404 | 77 | 121 | 5.0 | 14.0 | 0.00 | 0.00 | 0.00 | 32 | 1006.3 |
| 20260505111904 | 77 | 136 | 5.0 | 20.0 | 0.00 | 0.00 | 0.00 | 32 | 1006.3 |
| 20260505111404 | 77 | 123 | 4.0 | 14.0 | 0.00 | 0.00 | 0.00 | 31 | 1006.4 |
| 20260505110904 | 77 | 128 | 3.0 | 17.0 | 0.00 | 0.00 | 0.00 | 31 | 1006.4 |
| 20260505110404 | 77 | 170 | 5.0 | 13.0 | 0.00 | 0.00 | 0.00 | 30 | 1006.4 |
| 20260505101905 | 77 | 164 | 7.0 | 14.0 | 0.00 | 0.00 | 0.00 | 30 | 1007.0 |
| 20260505101405 | 77 | 185 | 6.0 | 15.0 | 0.00 | 0.00 | 0.00 | 31 | 1006.9 |
| 20260505100904 | 77 | 149 | 3.0 | 12.0 | 0.00 | 0.00 | 0.00 | 31 | 1006.9 |
| 20260505095905 | 76 | 93 | 3.0 | 12.0 | 0.00 | 0.00 | 0.00 | 31 | 1006.9 |
| 20260505095405 | 76 | 158 | 3.0 | 10.0 | 0.00 | 0.00 | 0.00 | 32 | 1006.8 |
| 20260505094404 | 75 | 136 | 4.0 | 13.0 | 0.00 | 0.00 | 0.00 | 32 | 1007.1 |
| 20260505093904 | 75 | 193 | 3.0 | 10.0 | 0.00 | 0.00 | 0.00 | 33 | 1007.1 |
| 20260505093405 | 75 | 102 | 3.0 | 8.0 | 0.00 | 0.00 | 0.00 | 32 | 1007.1 |
| 20260505092904 | 74 | 156 | 4.0 | 13.0 | 0.00 | 0.00 | 0.00 | 33 | 1007.3 |
| 20260505092405 | 74 | 174 | 6.0 | 12.0 | 0.00 | 0.00 | 0.00 | 34 | 1007.3 |
| 20260505091905 | 74 | 151 | 4.0 | 9.0 | 0.00 | 0.00 | 0.00 | 34 | 1007.3 |
| 20260505091405 | 73 | 142 | 3.0 | 9.0 | 0.00 | 0.00 | 0.00 | 33 | 1007.4 |
| 20260505090904 | 73 | 197 | 4.0 | 12.0 | 0.00 | 0.00 | 0.00 | 34 | 1007.5 |
| 20260505090404 | 73 | 160 | 2.0 | 9.0 | 0.00 | 0.00 | 0.00 | 34 | 1007.5 |
| 20260505085904 | 73 | 164 | 4.0 | 7.0 | 0.00 | 0.00 | 0.00 | 34 | 1007.5 |
| 20260505085404 | 73 | 147 | 3.0 | 7.0 | 0.00 | 0.00 | 0.00 | 34 | 1007.4 |
| 20260505084904 | 73 | 161 | 7.0 | 17.0 | 0.00 | 0.00 | 0.00 | 33 | 1007.5 |
| 20260505084419 | 73 | 142 | 6.0 | 14.0 | 0.00 | 0.00 | 0.00 | 33 | 1007.4 |
| 20260505083904 | 73 | 159 | 4.0 | 13.0 | 0.00 | 0.00 | 0.00 | 36 | 1007.5 |
| 20260505083404 | 73 | 196 | 3.0 | 7.0 | 0.00 | 0.00 | 0.00 | 37 | 1007.5 |
| 20260505082904 | 72 | 91 | 5.0 | 10.0 | 0.00 | 0.00 | 0.00 | 36 | 1007.5 |
| 20260505081904 | 72 | 160 | 2.0 | 9.0 | 0.00 | 0.00 | 0.00 | 37 | 1007.6 |
| 20260505081404 | 72 | 186 | 3.0 | 12.0 | 0.00 | 0.00 | 0.00 | 37 | 1007.6 |
| 20260505080904 | 72 | 156 | 4.0 | 15.0 | 0.00 | 0.00 | 0.00 | 36 | 1007.6 |
| 20260505080404 | 72 | 169 | 4.0 | 12.0 | 0.00 | 0.00 | 0.00 | 36 | 1007.6 |
| 20260505075904 | 72 | 131 | 6.0 | 13.0 | 0.00 | 0.00 | 0.00 | 35 | 1007.6 |
| 20260505075405 | 72 | 174 | 6.0 | 15.0 | 0.00 | 0.00 | 0.00 | 36 | 1007.5 |
| 20260505074904 | 71 | 155 | 1.0 | 6.0 | 0.00 | 0.00 | 0.00 | 39 | 1007.5 |
| 20260505073404 | 69 | 44 | 2.0 | 6.0 | 0.00 | 0.00 | 0.00 | 42 | 1007.4 |
| 20260505072904 | 69 | 83 | 1.0 | 7.0 | 0.00 | 0.00 | 0.00 | 44 | 1007.5 |
| 20260505072404 | 68 | 56 | 4.0 | 8.0 | 0.00 | 0.00 | 0.00 | 43 | 1007.4 |
| 20260505071404 | 67 | 324 | 3.0 | 12.0 | 0.00 | 0.00 | 0.00 | 43 | 1007.6 |
| 20260505070904 | 67 | 51 | 1.0 | 8.0 | 0.00 | 0.00 | 0.00 | 44 | 1007.6 |
| 20260505070405 | 67 | 45 | 3.0 | 8.0 | 0.00 | 0.00 | 0.00 | 43 | 1007.6 |
| 20260505065904 | 67 | 42 | 6.0 | 14.0 | 0.00 | 0.00 | 0.00 | 44 | 1007.6 |
| 20260505064904 | 66 | 61 | 2.0 | 6.0 | 0.00 | 0.00 | 0.00 | 44 | 1007.7 |
| 20260505064404 | 66 | 29 | 2.0 | 7.0 | 0.00 | 0.00 | 0.00 | 45 | 1007.8 |
| 20260505063904 | 66 | 94 | 1.0 | 7.0 | 0.00 | 0.00 | 0.00 | 45 | 1007.9 |
| 20260505063404 | 66 | 90 | 1.0 | 5.0 | 0.00 | 0.00 | 0.00 | 45 | 1008.0 |
| 20260505062905 | 66 | 125 | 1.0 | 5.0 | 0.00 | 0.00 | 0.00 | 45 | 1007.9 |
| 20260505062404 | 65 | 37 | 1.0 | 5.0 | 0.00 | 0.00 | 0.00 | 45 | 1008.0 |
| 20260505061904 | 65 | 257 | 1.0 | 5.0 | 0.00 | 0.00 | 0.00 | 45 | 1008.0 |
| 20260505061404 | 65 | 63 | 3.0 | 12.0 | 0.00 | 0.00 | 0.00 | 45 | 1007.9 |
| 20260505060905 | 65 | 137 | 1.0 | 5.0 | 0.00 | 0.00 | 0.00 | 46 | 1007.9 |
| 20260505060404 | 65 | 278 | 2.0 | 6.0 | 0.00 | 0.00 | 0.00 | 45 | 1007.9 |
| 20260505055904 | 64 | 58 | 2.0 | 12.0 | 0.00 | 0.00 | 0.00 | 45 | 1007.9 |
| 20260505055404 | 64 | 78 | 0.0 | 8.0 | 0.00 | 0.00 | 0.00 | 46 | 1007.8 |
| 20260505053404 | 63 | 31 | 3.0 | 7.0 | 0.00 | 0.00 | 0.00 | 48 | 1007.6 |
| 20260505052905 | 63 | 62 | 2.0 | 8.0 | 0.00 | 0.00 | 0.00 | 48 | 1007.7 |
| 20260505051905 | 63 | 110 | 2.0 | 7.0 | 0.00 | 0.00 | 0.00 | 47 | 1007.7 |
| 20260505051404 | 63 | 106 | 2.0 | 8.0 | 0.00 | 0.00 | 0.00 | 47 | 1007.7 |
| 20260505050904 | 62 | 72 | 2.0 | 7.0 | 0.00 | 0.00 | 0.00 | 47 | 1007.8 |
| 20260505050404 | 62 | 27 | 2.0 | 7.0 | 0.00 | 0.00 | 0.00 | 47 | 1007.8 |
| 20260505041404 | 59 | 87 | 2.0 | 8.0 | 0.00 | 0.00 | 0.00 | 49 | 1008.0 |
| 20260505040905 | 59 | 112 | 2.0 | 7.0 | 0.00 | 0.00 | 0.00 | 49 | 1008.0 |
| 20260505035904 | 59 | 67 | 2.0 | 8.0 | 0.00 | 0.00 | 0.00 | 49 | 1008.0 |
| 20260505035404 | 58 | 72 | 2.0 | 8.0 | 0.00 | 0.00 | 0.00 | 49 | 1008.1 |
| 20260505034905 | 58 | 61 | 2.0 | 6.0 | 0.00 | 0.00 | 0.00 | 49 | 1008.1 |
| 20260505034404 | 58 | 94 | 2.0 | 6.0 | 0.00 | 0.00 | 0.00 | 49 | 1008.2 |
| 20260505033920 | 58 | 40 | 0.0 | 2.0 | 0.00 | 0.00 | 0.00 | 49 | 1008.3 |
| 20260505033405 | 58 | 48 | 1.0 | 3.0 | 0.00 | 0.00 | 0.00 | 49 | 1008.3 |
| 20260505032904 | 58 | 66 | 1.0 | 3.0 | 0.00 | 0.00 | 0.00 | 49 | 1008.4 |
| 20260505032418 | 58 | 82 | 2.0 | 6.0 | 0.00 | 0.00 | 0.00 | 49 | 1008.4 |
| 20260505031904 | 58 | 51 | 1.0 | 6.0 | 0.00 | 0.00 | 0.00 | 49 | 1008.4 |
| 20260505030904 | 58 | 80 | 2.0 | 6.0 | 0.00 | 0.00 | 0.00 | 49 | 1008.5 |
| 20260505025904 | 58 | 79 | 1.0 | 5.0 | 0.00 | 0.00 | 0.00 | 50 | 1008.5 |
| 20260505025404 | 57 | 56 | 3.0 | 7.0 | 0.00 | 0.00 | 0.00 | 50 | 1008.5 |
| 20260505024904 | 57 | 78 | 3.0 | 7.0 | 0.00 | 0.00 | 0.00 | 51 | 1008.6 |
| 20260505024405 | 57 | 34 | 1.0 | 2.0 | 0.00 | 0.00 | 0.00 | 51 | 1008.6 |
| 20260505023904 | 57 | 84 | 2.0 | 3.0 | 0.00 | 0.00 | 0.00 | 51 | 1008.6 |
| 20260505023405 | 57 | 55 | 1.0 | 3.0 | 0.00 | 0.00 | 0.00 | 51 | 1008.7 |
| 20260505022904 | 57 | 65 | 2.0 | 3.0 | 0.00 | 0.00 | 0.00 | 52 | 1008.8 |
| 20260505022404 | 57 | 76 | 2.0 | 5.0 | 0.00 | 0.00 | 0.00 | 52 | 1008.8 |
| 20260505021904 | 57 | 56 | 2.0 | 5.0 | 0.00 | 0.00 | 0.00 | 52 | 1008.9 |
| 20260505021404 | 56 | 66 | 2.0 | 5.0 | 0.00 | 0.00 | 0.00 | 52 | 1008.9 |
| 20260505020905 | 56 | 81 | 3.0 | 7.0 | 0.00 | 0.00 | 0.00 | 52 | 1009.0 |
| 20260505015904 | 56 | 57 | 2.0 | 6.0 | 0.00 | 0.00 | 0.00 | 52 | 1009.1 |
| 20260505015404 | 56 | 83 | 2.0 | 3.0 | 0.00 | 0.00 | 0.00 | 53 | 1009.2 |
| 20260505014904 | 56 | 72 | 2.0 | 3.0 | 0.00 | 0.00 | 0.00 | 53 | 1009.2 |
| 20260505014404 | 56 | 71 | 2.0 | 3.0 | 0.00 | 0.00 | 0.00 | 53 | 1009.2 |
| 20260505013905 | 56 | 56 | 1.0 | 3.0 | 0.00 | 0.00 | 0.00 | 53 | 1009.3 |
| 20260505013404 | 56 | 81 | 2.0 | 3.0 | 0.00 | 0.00 | 0.00 | 53 | 1009.4 |
| 20260505012904 | 56 | 76 | 1.0 | 3.0 | 0.00 | 0.00 | 0.00 | 53 | 1009.5 |
| 20260505012404 | 56 | 80 | 1.0 | 3.0 | 0.00 | 0.00 | 0.00 | 52 | 1009.4 |
| 20260505011905 | 56 | 81 | 1.0 | 2.0 | 0.00 | 0.00 | 0.00 | 52 | 1009.5 |
| 20260505011404 | 57 | 82 | 1.0 | 3.0 | 0.00 | 0.00 | 0.00 | 52 | 1009.5 |
| 20260505010904 | 57 | 82 | 1.0 | 3.0 | 0.00 | 0.00 | 0.00 | 52 | 1009.5 |
| 20260505010404 | 57 | 82 | 1.0 | 3.0 | 0.00 | 0.00 | 0.00 | 52 | 1009.6 |
| 20260505005905 | 57 | 61 | 1.0 | 2.0 | 0.00 | 0.00 | 0.00 | 51 | 1009.7 |
| 20260505005404 | 57 | 84 | 1.0 | 3.0 | 0.00 | 0.00 | 0.00 | 52 | 1009.8 |
| 20260505004904 | 57 | 83 | 1.0 | 3.0 | 0.00 | 0.00 | 0.00 | 51 | 1009.8 |
| 20260505004404 | 57 | 79 | 0.0 | 2.0 | 0.00 | 0.00 | 0.00 | 51 | 1009.8 |
| 20260505003904 | 56 | 90 | 1.0 | 6.0 | 0.00 | 0.00 | 0.00 | 51 | 1009.8 |
| 20260505002905 | 56 | 92 | 1.0 | 5.0 | 0.00 | 0.00 | 0.00 | 52 | 1009.9 |
| 20260505002404 | 56 | 73 | 2.0 | 3.0 | 0.00 | 0.00 | 0.00 | 51 | 1009.9 |
| 20260505001904 | 56 | 92 | 2.0 | 3.0 | 0.00 | 0.00 | 0.00 | 51 | 1010.0 |
| 20260505001404 | 56 | 74 | 2.0 | 3.0 | 0.00 | 0.00 | 0.00 | 51 | 1010.1 |
| 20260505000905 | 57 | 86 | 0.0 | 3.0 | 0.00 | 0.00 | 0.00 | 52 | 1010.2 |
| 20260505000405 | 57 | 71 | 1.0 | 3.0 | 0.00 | 0.00 | 0.00 | 52 | 1010.2 |
| 20260504235904 | 57 | 88 | 1.0 | 3.0 | 0.00 | 0.00 | 0.00 | 52 | 1010.2 |
| 20260504235404 | 57 | 64 | 1.0 | 3.0 | 0.00 | 0.00 | 0.00 | 51 | 1010.2 |
| 20260504234904 | 57 | 88 | 1.0 | 2.0 | 0.00 | 0.00 | 0.00 | 50 | 1010.3 |
| 20260504234404 | 57 | 87 | 1.0 | 3.0 | 0.00 | 0.00 | 0.00 | 50 | 1010.3 |
| 20260504233904 | 57 | 63 | 1.0 | 3.0 | 0.00 | 0.00 | 0.00 | 50 | 1010.4 |